Weather History for Owensboro, KY

Change the Weather History Date:

Thursday, November 15, 2012

  Actual Average Record
Temperature  
Mean Temperature 38 °F -  
Max Temperature 48 °F 57 °F 81 °F (1955)
Min Temperature 28 °F 37 °F 17 °F (1940)
Degree Days  
Heating Degree Days 27    
Moisture  
Dew Point 30 °F    
Average Humidity 73    
Maximum Humidity 92    
Minimum Humidity 48    
Precipitation  
Precipitation 0.00 in - - ()
Sea Level Pressure  
Sea Level Pressure 30.37 in    
Wind  
Wind Speed 2 mph (North)    
Max Wind Speed 6 mph    
Max Gust Speed -    
Visibility 10 miles    
Events      
Averages and records for this station are not official NWS values.
T = Trace of Precipitation, MM = Missing Value Source: NWS Daily Summary

Daily Weather History Graph

Daily Weather History Graph

Search for Another Location

Airport:

Trip Planner

Search our weather history database for the weather conditions in past years. The results will help you decide how hot, cold, wet, or windy it might be!

Date:

Astronomy

Nov. 15, 2012 Rise Set
Actual Time 6:29 AM CST 4:37 PM CST
Civil Twilight 6:01 AM CST 5:05 PM CST
Nautical Twilight 5:29 AM CST 5:36 PM CST
Astronomical Twilight 4:58 AM CST 6:07 PM CST
Moon 8:23 AM CST (11/15) 6:29 PM CST (11/15)
Length of Visible Light 11h 03m
Length of Day
10h 07m
Waxing Crescent, 5% of the Moon is Illuminated
Nov 15
Waxing Crescent
Nov 20
First Quarter
Nov 28
Full
Dec 6
Last Quarter
Dec 13
New

Hourly Weather History & Observations

Time (CST) Temp. Windchill Dew Point Humidity Pressure Visibility Wind Dir Wind Speed Gust Speed Precip Events Conditions
12:56 AM 31.1 °F 27.7 °F 28.0 °F 88% 30.35 in 10.0 mi NW 3.5 mph - N/A   Clear
1:56 AM 31.1 °F - 27.1 °F 85% 30.35 in 10.0 mi Calm Calm - N/A   Clear
2:56 AM 31.1 °F - 27.1 °F 85% 30.34 in 10.0 mi Calm Calm - N/A   Clear
3:56 AM 30.0 °F - 27.1 °F 89% 30.35 in 10.0 mi Calm Calm - N/A   Clear
4:56 AM 28.0 °F - 26.1 °F 92% 30.36 in 10.0 mi Calm Calm - N/A   Clear
5:56 AM 28.0 °F - 26.1 °F 92% 30.37 in 10.0 mi Calm Calm - N/A   Clear
6:56 AM 28.0 °F - 26.1 °F 92% 30.39 in 7.0 mi Calm Calm - N/A   Clear
7:56 AM 32.9 °F - 29.1 °F 86% 30.40 in 8.0 mi Calm Calm - N/A   Clear
8:56 AM 39.9 °F 36.7 °F 32.0 °F 73% 30.40 in 9.0 mi ENE 4.6 mph - N/A   Clear
9:56 AM 41.9 °F - 32.9 °F 70% 30.40 in 10.0 mi Calm Calm - N/A   Clear
10:56 AM 45.0 °F 43.5 °F 32.0 °F 60% 30.39 in 10.0 mi North 3.5 mph - N/A   Clear
11:56 AM 47.8 °F - 31.1 °F 52% 30.37 in 10.0 mi Variable 3.5 mph - N/A   Clear
12:56 PM 48.9 °F - 31.1 °F 50% 30.35 in 10.0 mi ENE 5.8 mph - N/A   Clear
1:56 PM 48.9 °F - 32.0 °F 52% 30.34 in 10.0 mi Variable 4.6 mph - N/A   Clear
2:56 PM 48.9 °F - 30.0 °F 48% 30.33 in 10.0 mi North 3.5 mph - N/A   Clear
3:56 PM 48.9 °F - 31.1 °F 50% 30.34 in 10.0 mi North 3.5 mph - N/A   Clear
4:56 PM 46.9 °F - 32.0 °F 56% 30.34 in 10.0 mi Calm Calm - N/A   Clear
5:56 PM 43.0 °F 40.3 °F 32.0 °F 65% 30.35 in 10.0 mi NW 4.6 mph - N/A   Clear
6:56 PM 41.0 °F 38.0 °F 32.9 °F 73% 30.37 in 10.0 mi Variable 4.6 mph - N/A   Clear
7:56 PM 39.9 °F 37.8 °F 32.9 °F 76% 30.38 in 10.0 mi NNW 3.5 mph - N/A   Clear
8:56 PM 39.9 °F 36.7 °F 32.0 °F 73% 30.38 in 10.0 mi North 4.6 mph - N/A   Clear
9:56 PM 41.0 °F 38.0 °F 32.0 °F 70% 30.38 in 7.0 mi NNE 4.6 mph - N/A   Clear
10:56 PM 39.9 °F 37.8 °F 32.9 °F 76% 30.38 in 10.0 mi North 3.5 mph - N/A   Clear
11:56 PM 31.1 °F - 28.0 °F 88% 30.38 in 9.0 mi Calm Calm - N/A   Clear